Location: Casilda
(33.0440°S, 61.1680°W)
Time: 11:34:11
(UTC-03:00)

ISS - Visible Passes

Search period start: 01 October 2022 00:00
Search period end: 11 October 2022 00:00
Orbit: 414 x 417 km, 51.6° (Epoch: 01 October)

Date Brightness Start Highest point End Pass type
(mag) Time Alt. Az. Time Alt. Az. Time Alt. Az.
06 Oct -0.8 06:10:19 10° S 06:11:55 13° SSE 06:13:31 10° ESE visible
09 Oct -0.9 05:19:25 10° SSW 05:21:49 18° SSE 05:24:12 10° ESE visible
10 Oct -0.5 04:31:17 10° S 04:32:34 12° SSE 04:33:49 10° SE visible
10 Oct -3.7 06:06:17 10° SW 06:09:41 88° NW 06:13:02 10° NE visible
